Weather History for Cleveland, OH

Change the Weather History Date:

Friday, June 14, 2013

  Actual Average Record
Temperature  
Mean Temperature 63 °F 69 °F  
Max Temperature 70 °F 78 °F 95 °F (1988)
Min Temperature 55 °F 60 °F 43 °F (1968)
Degree Days  
Heating Degree Days 2 1  
Month to date heating degree days 38 30  
Since 1 June heating degree days 38 30  
Since 1 July heating degree days 5808 5750  
Cooling Degree Days 0 5  
Month to date cooling degree days 37 58  
Year to date cooling degree days 151 117  
Since 1 June cooling degree days 37 58  
Growing Degree Days 14 (Base 50)    
Moisture  
Dew Point 54 °F    
Average Humidity 70    
Maximum Humidity 87    
Minimum Humidity 53    
Precipitation  
Precipitation 0.00 in 0.12 in 0.63 in (2005)
Month to date precipitation 3.25 1.64  
Year to date precipitation 15.84 16.78  
Snow  
Snow 0.00 in 0.00 in - ()
Month to date snowfall 0.0 0.0  
Since 1 June snowfall 0.0 0.0  
Since 1 July snowfall 51.7 68.1  
Snow Depth 0.00 in    
Sea Level Pressure  
Sea Level Pressure 30.01 in    
Wind  
Wind Speed 8 mph (NNW)    
Max Wind Speed 16 mph    
Max Gust Speed 20 mph    
Visibility 10 miles    
Events      
T = Trace of Precipitation, MM = Missing Value Source: NWS Daily Summary

Daily Weather History Graph

Daily Weather History Graph

Search for Another Location

Airport:

Trip Planner

Search our weather history database for the weather conditions in past years. The results will help you decide how hot, cold, wet, or windy it might be!

Date:

Astronomy

Jun. 14, 2013 Rise Set
Actual Time 5:53 AM EDT 9:02 PM EDT
Civil Twilight 5:19 AM EDT 9:36 PM EDT
Nautical Twilight 4:35 AM EDT 10:19 PM EDT
Astronomical Twilight 3:44 AM EDT 11:11 PM EDT
Moon 11:30 AM EDT (6/14) 12:04 AM EDT (6/14)
Length of Visible Light 16h 16m
Length of Day
15h 09m
Waxing Crescent, 30% of the Moon is Illuminated
Jun 14
Waxing Crescent
Jun 16
First Quarter
Jun 23
Full
Jun 30
Last Quarter
Jul 8
New

Hourly Weather History & Observations

Time (EDT) Temp. Dew Point Humidity Pressure Visibility Wind Dir Wind Speed Gust Speed Precip Events Conditions
12:51 AM 62.1 °F 54.0 °F 75% 29.89 in 10.0 mi NNW 10.4 mph - N/A   Clear
1:51 AM 62.1 °F 54.0 °F 75% 29.89 in 10.0 mi NNW 10.4 mph - N/A   Clear
2:51 AM 61.0 °F 54.0 °F 78% 29.90 in 10.0 mi North 8.1 mph - N/A   Clear
3:51 AM 60.1 °F 54.0 °F 80% 29.90 in 10.0 mi NNW 10.4 mph - N/A   Partly Cloudy
4:51 AM 59.0 °F 54.0 °F 83% 29.91 in 10.0 mi North 9.2 mph - N/A   Partly Cloudy
5:41 AM 59.0 °F 54.0 °F 83% 29.93 in 10.0 mi North 3.5 mph - N/A   Mostly Cloudy
5:51 AM 59.0 °F 55.0 °F 87% 29.93 in 10.0 mi North 3.5 mph - N/A   Mostly Cloudy
6:51 AM 60.1 °F 55.0 °F 83% 29.95 in 10.0 mi North 9.2 mph - N/A   Mostly Cloudy
7:51 AM 61.0 °F 55.0 °F 81% 29.98 in 10.0 mi NNW 12.7 mph - N/A   Overcast
8:51 AM 62.1 °F 55.9 °F 80% 30.00 in 10.0 mi North 8.1 mph - N/A   Overcast
9:51 AM 62.1 °F 55.0 °F 78% 30.03 in 10.0 mi North 11.5 mph - N/A   Overcast
10:51 AM 62.1 °F 55.0 °F 78% 30.05 in 10.0 mi NNW 9.2 mph - N/A   Overcast
11:51 AM 64.0 °F 55.9 °F 75% 30.06 in 10.0 mi North 9.2 mph - N/A   Overcast
12:51 PM 66.9 °F 55.9 °F 68% 30.07 in 10.0 mi NNW 9.2 mph - N/A   Overcast
1:51 PM 68.0 °F 57.0 °F 68% 30.07 in 10.0 mi NNW 13.8 mph - N/A   Mostly Cloudy
2:51 PM 68.0 °F 55.0 °F 63% 30.07 in 10.0 mi NNW 12.7 mph - N/A   Mostly Cloudy
3:51 PM 69.1 °F 55.0 °F 61% 30.06 in 10.0 mi NNW 10.4 mph - N/A   Partly Cloudy
4:51 PM 69.1 °F 53.1 °F 57% 30.06 in 10.0 mi North 15.0 mph - N/A   Partly Cloudy
5:51 PM 69.1 °F 51.1 °F 53% 30.06 in 10.0 mi North 8.1 mph 19.6 mph N/A   Clear
6:51 PM 69.1 °F 51.1 °F 53% 30.06 in 10.0 mi North 8.1 mph - N/A   Clear
7:51 PM 68.0 °F 50.0 °F 52% 30.06 in 10.0 mi North 8.1 mph - N/A   Clear
8:51 PM 64.9 °F 50.0 °F 58% 30.06 in 10.0 mi North 3.5 mph - N/A   Clear
9:51 PM 63.0 °F 50.0 °F 63% 30.07 in 10.0 mi SW 3.5 mph - N/A   Clear
10:51 PM 60.1 °F 51.1 °F 72% 30.10 in 10.0 mi Calm Calm - N/A   Clear
11:51 PM 57.9 °F 51.1 °F 78% 30.10 in 10.0 mi Calm Calm - N/A   Clear